Home   Weather   Dąbrowa Górnicza   Past weeks

Flag for Poland Past Weather in Dąbrowa Górnicza, Poland — Yesterday and Last 2 Weeks

Now
61 °F

Light rain. Passing clouds.


Feels Like: 61 °F
Forecast: 53 / 60 °F
Wind: 2 mph from North

Location: Katowice Airport

Current Time: Aug 19, 2017 at 5:09:57 pm

Latest Report: Aug 19, 2017 at 4:30 pm


Visibility: N/A

Pressure: 30.09 "Hg

Humidity: 94%

Dew Point: 59 °F

Location of Dąbrowa GórniczaLocation

Past Weather in Dąbrowa Górnicza — Graph

°F

Dąbrowa Górnicza Temperature Yesterday

Maximum temperature yesterday: 86 °F (at 2:30 pm)
Minimum temperature yesterday: 55 °F (at 5:00 am)
Average temperature yesterday: 72 °F

High & Low Weather Summary for the Past Weeks

 TemperatureHumidityPressure
High93 °F (Aug 11, 3:00 pm)100% (Aug 8, 2:30 am)30.27 "Hg (Aug 8, 2:30 am)
Low48 °F (Aug 8, 2:30 am)31% (Aug 16, 3:00 pm)29.74 "Hg (Aug 11, 7:30 pm)
Average69 °F68%30.07 "Hg
* Reported Aug 4 3:00 pm — Aug 19 3:30 pm, Dąbrowa Górnicza. Weather by CustomWeather, © 2017

Note: Actual official high and low records may vary slightly from our data, if they occured in-between our weather recording intervals... More about our weather records

Advertising

Dąbrowa Górnicza Weather History for the Previous 24 Hours

Scroll right to see more
 ConditionsComfort  
Time TempWeatherWind HumidityBarometerVisibility
3:30 pm
Sat, Aug 19
61 °FLight rain. Broken clouds.7 mph94%30.09 "Hg5 mi
3:00 pm63 °FRain showers. Broken clouds.9 mph94%30.09 "Hg4 mi
2:30 pm64 °FSprinkles. Scattered clouds.2 mph88%30.07 "HgN/A
2:00 pm64 °FSprinkles. Broken clouds.7 mph88%30.09 "Hg4 mi
1:30 pm64 °FSprinkles. Broken clouds.5 mph94%30.07 "HgN/A
1:00 pm64 °FSprinkles. Broken clouds.7 mph94%30.07 "Hg4 mi
12:30 pm64 °FSprinkles. Fog.12 mph88%30.07 "Hg2 mi
12:00 pm66 °FLight rain. Broken clouds.8 mph88%30.04 "Hg4 mi
11:30 am66 °FMore clouds than sun.7 mph83%30.04 "HgN/A
11:00 am68 °FOvercast.9 mph78%30.04 "HgN/A
10:30 am68 °FOvercast.9 mph73%30.01 "HgN/A
10:00 am70 °FOvercast.10 mph69%30.01 "HgN/A
9:30 am72 °FOvercast.13 mph61%30.01 "HgN/A
9:00 am70 °FPassing clouds.13 mph73%29.98 "HgN/A
8:30 am72 °FSunny.12 mph69%29.98 "Hg10 mi
8:00 am72 °FSunny.13 mph69%29.95 "Hg10 mi
7:30 am72 °FSunny.13 mph61%29.95 "Hg10 mi
7:00 am70 °FPassing clouds.9 mph64%29.92 "HgN/A
6:30 am73 °FSunny.10 mph53%29.92 "Hg10 mi
6:00 am72 °FSunny.7 mph57%29.92 "Hg10 mi
5:30 am72 °FClear.7 mph57%29.92 "Hg10 mi
5:00 am68 °FClear.6 mph64%29.89 "Hg10 mi
4:30 am68 °FClear.6 mph69%29.89 "Hg10 mi
4:00 am68 °FClear.7 mph69%29.89 "Hg10 mi
3:30 am70 °FClear.7 mph64%29.92 "Hg10 mi
3:00 am68 °FClear.9 mph69%29.92 "Hg10 mi
2:30 am70 °FClear.9 mph64%29.92 "Hg10 mi
2:00 am72 °FClear.10 mph61%29.92 "Hg10 mi
1:30 am70 °FClear.10 mph64%29.92 "Hg10 mi
1:00 am72 °FClear.10 mph61%29.92 "Hg10 mi
12:30 am72 °FClear.10 mph61%29.92 "Hg10 mi
12:00 am72 °FClear.10 mph61%29.92 "Hg10 mi
11:30 pm
Fri, Aug 18
72 °FClear.12 mph61%29.92 "Hg10 mi
11:00 pm72 °FClear.12 mph61%29.92 "Hg10 mi
10:30 pm73 °FClear.10 mph61%29.92 "Hg10 mi
10:00 pm73 °FClear.8 mph61%29.95 "Hg10 mi
9:30 pm73 °FClear.9 mph61%29.95 "Hg10 mi
9:00 pm75 °FClear.8 mph57%29.95 "Hg10 mi
8:30 pm77 °FClear.7 mph54%29.98 "Hg10 mi
8:00 pm79 °FPassing clouds.6 mph51%29.98 "HgN/A
7:30 pm81 °FPassing clouds.6 mph48%29.98 "HgN/A
7:00 pm84 °FSunny.7 mph40%29.98 "Hg10 mi
6:30 pm84 °FSunny.10 mph40%29.98 "Hg10 mi
6:00 pm84 °FSunny.8 mph37%29.98 "Hg10 mi
5:30 pm86 °FSunny.6 mph38%29.98 "Hg10 mi
5:00 pm86 °FSunny.12 mph38%30.01 "Hg10 mi
Weather by CustomWeather, © 2017

See weather overviewHow to use our weather pages